^^
Station Historical Data
 
Daily Summary for September 16, 2014 Units:  English    Metric   Both
« Previous Day
Next Day »
Daily Weekly Monthly Yearly Custom
  Current: High: Low: Average:
Temperature: 61.5 °F 62.4 °F 53.6 °F 55.2 °F
Dew Point: 53.5 °F 56.4 °F 50.5 °F 53.1 °F
Humidity: 75% 100% 74% 93%
Wind Speed: 2.2mph 6.0mph 0.1mph 1.7mph
Wind Gust: 4.5mph 6.9mph - -
WindSE - - SSW
Pressure: 30.13 in 30.14 in 30.05 in -
Precipitation: 0.11 in      
Historical Graphs
 
 
Tabular Data for September 16, 2014
Time Temperature Dew Point Pressure Wind Wind Speed Wind Gust Humidity Rainfall Rate (Hourly)
00:01 55.7 °F 51.3 °F 30.07 in WSW 0.2 mph 0.7 mph 85% 0.00 in
00:06 55.7 °F 51.3 °F 30.06 in West 0.1 mph 0.7 mph 85% 0.00 in
00:11 55.6 °F 50.8 °F 30.06 in West 0.6 mph 2.2 mph 84% 0.00 in
00:16 55.6 °F 50.5 °F 30.06 in West 0.8 mph 2.2 mph 83% 0.00 in
00:21 55.7 °F 50.7 °F 30.06 in NNW 0.6 mph 1.6 mph 83% 0.00 in
00:26 55.9 °F 50.8 °F 30.06 in NNW 0.7 mph 1.6 mph 83% 0.00 in
00:31 55.9 °F 50.8 °F 30.06 in NW 0.6 mph 0.7 mph 83% 0.00 in
00:36 55.9 °F 50.8 °F 30.06 in WNW 0.6 mph 1.6 mph 83% 0.00 in
00:41 55.9 °F 50.8 °F 30.06 in NW 1.0 mph 2.2 mph 83% 0.00 in
00:46 55.9 °F 50.8 °F 30.06 in NW 1.0 mph 2.2 mph 83% 0.00 in
00:51 55.9 °F 50.8 °F 30.06 in NW 0.6 mph 1.6 mph 83% 0.00 in
00:56 55.9 °F 50.8 °F 30.06 in WNW 0.8 mph 1.6 mph 83% 0.00 in
01:01 55.9 °F 50.8 °F 30.06 in NNW 0.8 mph 1.6 mph 83% 0.00 in
01:06 55.9 °F 50.8 °F 30.05 in North 0.6 mph 0.7 mph 83% 0.00 in
01:11 55.9 °F 51.2 °F 30.06 in North 0.6 mph 0.7 mph 84% 0.00 in
01:16 55.9 °F 51.2 °F 30.05 in NW 0.6 mph 0.7 mph 84% 0.00 in
01:21 55.9 °F 51.2 °F 30.05 in NW 0.6 mph 0.7 mph 84% 0.00 in
01:26 55.7 °F 51.0 °F 30.06 in NW 0.8 mph 2.2 mph 84% 0.00 in
01:31 55.7 °F 51.0 °F 30.05 in WNW 0.8 mph 2.2 mph 84% 0.00 in
01:36 55.7 °F 51.3 °F 30.05 in WSW 0.4 mph 1.6 mph 85% 0.00 in
01:41 55.7 °F 51.3 °F 30.05 in Calm   0.7 mph 85% 0.00 in
01:46 55.6 °F 51.1 °F 30.05 in Calm     85% 0.00 in
01:51 55.6 °F 51.4 °F 30.05 in Calm     86% 0.00 in
01:56 55.6 °F 51.4 °F 30.05 in Calm     86% 0.00 in
02:01 55.6 °F 51.4 °F 30.06 in Calm     86% 0.00 in
02:06 55.6 °F 51.4 °F 30.06 in Calm     86% 0.00 in
02:11 55.6 °F 51.8 °F 30.06 in NNW 0.3 mph 1.6 mph 87% 0.00 in
02:16 55.7 °F 51.9 °F 30.06 in NNW 0.3 mph 1.6 mph 87% 0.00 in
02:21 55.7 °F 51.9 °F 30.06 in Calm     87% 0.00 in
02:25 55.7 °F 51.9 °F 30.06 in SE 0.2 mph 1.6 mph 87% 0.00 in
02:30 55.6 °F 51.8 °F 30.06 in West 0.8 mph 1.6 mph 87% 0.00 in
02:35 55.6 °F 51.8 °F 30.06 in West 0.8 mph 1.6 mph 87% 0.00 in
02:40 55.6 °F 52.1 °F 30.06 in SSW 0.8 mph 1.6 mph 88% 0.00 in
02:45 55.4 °F 51.9 °F 30.06 in SSW 1.3 mph 2.2 mph 88% 0.00 in
02:50 55.4 °F 52.2 °F 30.06 in NNW 1.1 mph 2.2 mph 89% 0.00 in
02:55 55.2 °F 52.0 °F 30.06 in North 0.4 mph 1.6 mph 89% 0.00 in
03:00 55.2 °F 52.3 °F 30.06 in South 0.1 mph 0.7 mph 90% 0.01 in
03:05 55.2 °F 52.3 °F 30.06 in South 0.1 mph 0.7 mph 90% 0.01 in
03:08 55.2 °F 52.3 °F 30.06 in Calm   0.7 mph 90% 0.02 in
03:13 55.0 °F 52.4 °F 30.06 in West 0.3 mph 1.6 mph 91% 0.04 in
03:18 55.0 °F 52.4 °F 30.06 in South 1.1 mph 2.2 mph 91% 0.05 in
03:23 54.8 °F 52.6 °F 30.06 in South 1.6 mph 2.2 mph 92% 0.06 in
03:28 54.7 °F 52.4 °F 30.06 in South 1.5 mph 2.2 mph 92% 0.07 in
03:33 54.7 °F 52.7 °F 30.06 in South 1.1 mph 2.2 mph 93% 0.07 in
03:38 54.7 °F 52.7 °F 30.06 in South 0.5 mph 1.6 mph 93% 0.08 in
03:43 54.5 °F 52.8 °F 30.07 in South 1.0 mph 2.2 mph 94% 0.08 in
03:48 54.5 °F 52.8 °F 30.06 in SSE 1.7 mph 2.2 mph 94% 0.09 in
03:53 54.5 °F 52.8 °F 30.06 in SE 1.5 mph 2.2 mph 94% 0.09 in
03:58 54.7 °F 53.3 °F 30.06 in SE 1.0 mph 2.2 mph 95% 0.08 in
04:03 54.7 °F 53.3 °F 30.06 in North 0.6 mph 0.7 mph 95% 0.08 in
04:08 54.5 °F 53.1 °F 30.06 in North 0.6 mph 0.7 mph 95% 0.07 in
04:13 54.5 °F 53.1 °F 30.06 in North 0.3 mph 0.7 mph 95% 0.06 in
04:17 54.3 °F 52.9 °F 30.05 in South 0.1 mph 0.7 mph 95% 0.05 in
04:22 54.5 °F 53.1 °F 30.05 in NNW 0.2 mph 0.7 mph 95% 0.04 in
04:27 54.5 °F 53.1 °F 30.06 in NNW 0.2 mph 0.7 mph 95% 0.02 in
04:31 54.5 °F 53.1 °F 30.05 in South 0.1 mph 0.7 mph 95% 0.02 in
04:36 54.5 °F 53.1 °F 30.06 in South 0.2 mph 0.7 mph 95% 0.01 in
04:41 54.5 °F 53.4 °F 30.06 in South 0.3 mph 2.2 mph 96% 0.01 in
04:46 54.3 °F 53.2 °F 30.06 in South 1.5 mph 3.1 mph 96% 0.00 in
04:51 54.3 °F 53.2 °F 30.06 in SSW 1.8 mph 3.1 mph 96% 0.00 in
04:56 54.3 °F 53.2 °F 30.06 in South 1.7 mph 3.8 mph 96% 0.00 in
05:01 54.1 °F 53.3 °F 30.06 in South 2.8 mph 3.8 mph 97% 0.00 in
05:06 54.1 °F 53.3 °F 30.06 in South 3.1 mph 3.1 mph 97% 0.00 in
05:11 53.9 °F 53.4 °F 30.06 in South 2.6 mph 3.1 mph 98% 0.00 in
05:16 53.9 °F 53.4 °F 30.06 in South 1.7 mph 3.1 mph 98% 0.00 in
05:21 53.9 °F 53.4 °F 30.07 in South 1.4 mph 2.2 mph 98% 0.00 in
05:26 53.9 °F 53.4 °F 30.07 in South 1.7 mph 2.2 mph 98% 0.00 in
05:31 53.9 °F 53.4 °F 30.07 in South 1.7 mph 3.1 mph 98% 0.00 in
05:36 53.9 °F 53.4 °F 30.07 in South 2.1 mph 3.8 mph 98% 0.00 in
05:38 53.9 °F 53.4 °F 30.07 in South 2.5 mph 3.8 mph 98% 0.00 in
05:43 53.8 °F 53.5 °F 30.06 in South 2.7 mph 3.8 mph 99% 0.00 in
05:48 53.8 °F 53.5 °F 30.07 in South 2.6 mph 3.8 mph 99% 0.00 in
05:53 53.8 °F 53.5 °F 30.07 in South 2.3 mph 3.8 mph 99% 0.00 in
05:58 53.8 °F 53.8 °F 30.07 in South 2.8 mph 3.8 mph 100% 0.00 in
06:03 53.8 °F 53.8 °F 30.07 in South 3.3 mph 3.8 mph 100% 0.00 in
06:08 53.8 °F 53.8 °F 30.08 in South 3.3 mph 3.8 mph 100% 0.00 in
06:13 53.8 °F 53.8 °F 30.08 in South 3.5 mph 4.5 mph 100% 0.00 in
06:17 53.8 °F 53.8 °F 30.08 in South 3.4 mph 4.5 mph 100% 0.00 in
06:22 53.8 °F 53.8 °F 30.08 in South 2.9 mph 3.8 mph 100% 0.00 in
06:27 53.9 °F 53.9 °F 30.08 in South 2.8 mph 4.5 mph 100% 0.00 in
06:32 53.9 °F 53.9 °F 30.08 in SSE 2.9 mph 4.5 mph 100% 0.00 in
06:37 53.9 °F 53.9 °F 30.09 in SSE 3.5 mph 4.5 mph 100% 0.01 in
06:42 54.1 °F 54.1 °F 30.09 in SSE 3.0 mph 4.5 mph 100% 0.01 in
06:47 53.9 °F 53.9 °F 30.09 in SSE 2.5 mph 3.8 mph 100% 0.01 in
06:52 53.8 °F 53.8 °F 30.09 in South 2.6 mph 3.8 mph 100% 0.01 in
06:57 53.8 °F 53.8 °F 30.10 in SSE 1.7 mph 3.8 mph 100% 0.01 in
07:02 53.8 °F 53.8 °F 30.09 in SSE 1.4 mph 2.2 mph 100% 0.01 in
07:07 53.8 °F 53.8 °F 30.09 in South 1.7 mph 2.2 mph 100% 0.01 in
07:12 53.8 °F 53.8 °F 30.09 in South 1.4 mph 2.2 mph 100% 0.01 in
07:17 53.8 °F 53.8 °F 30.10 in South 1.5 mph 2.2 mph 100% 0.01 in
07:22 53.8 °F 53.8 °F 30.10 in South 1.9 mph 3.8 mph 100% 0.01 in
07:27 53.6 °F 53.6 °F 30.10 in South 2.0 mph 3.8 mph 100% 0.01 in
07:32 53.8 °F 53.8 °F 30.10 in SSE 1.8 mph 3.1 mph 100% 0.01 in
07:37 53.8 °F 53.8 °F 30.10 in SSE 1.9 mph 3.1 mph 100% 0.00 in
07:42 53.8 °F 53.8 °F 30.10 in SE 1.7 mph 3.1 mph 100% 0.00 in
07:47 53.8 °F 53.8 °F 30.10 in SSE 1.3 mph 1.6 mph 100% 0.00 in
07:52 53.8 °F 53.8 °F 30.10 in South 1.7 mph 3.1 mph 100% 0.00 in
07:57 53.8 °F 53.8 °F 30.11 in South 1.9 mph 3.1 mph 100% 0.00 in
08:03 53.8 °F 53.8 °F 30.11 in South 2.0 mph 2.2 mph 100% 0.00 in
08:08 53.8 °F 53.8 °F 30.11 in South 2.2 mph 2.2 mph 100% 0.00 in
08:11 53.8 °F 53.8 °F 30.11 in South 2.0 mph 2.2 mph 100% 0.00 in
08:16 53.8 °F 53.8 °F 30.11 in WSW 1.8 mph 2.2 mph 100% 0.00 in
08:21 53.8 °F 53.8 °F 30.11 in SW 1.8 mph 3.8 mph 100% 0.00 in
08:26 53.8 °F 53.8 °F 30.11 in South 2.6 mph 5.4 mph 100% 0.00 in
08:31 53.8 °F 53.8 °F 30.11 in South 2.4 mph 5.4 mph 100% 0.00 in
08:36 53.8 °F 53.8 °F 30.11 in South 1.6 mph 2.2 mph 100% 0.00 in
08:41 53.8 °F 53.8 °F 30.12 in South 1.5 mph 2.2 mph 100% 0.00 in
08:46 53.9 °F 53.9 °F 30.11 in SSE 1.2 mph 2.2 mph 100% 0.00 in
08:51 53.9 °F 53.9 °F 30.11 in SSE 1.5 mph 3.1 mph 100% 0.00 in
08:56 53.9 °F 53.9 °F 30.12 in ESE 2.3 mph 3.8 mph 100% 0.00 in
09:01 53.9 °F 53.9 °F 30.12 in ESE 2.3 mph 3.8 mph 100% 0.00 in
09:06 53.9 °F 53.9 °F 30.12 in SE 1.8 mph 3.1 mph 100% 0.00 in
09:11 54.5 °F 54.5 °F 30.12 in SE 1.4 mph 1.6 mph 100% 0.00 in
09:16 54.7 °F 54.4 °F 30.12 in SSE 1.5 mph 2.2 mph 99% 0.00 in
09:21 54.7 °F 54.4 °F 30.12 in SSE 2.0 mph 3.1 mph 99% 0.00 in
09:27 54.8 °F 54.6 °F 30.12 in SE 2.4 mph 3.1 mph 99% 0.00 in
09:32 55.2 °F 54.7 °F 30.13 in ESE 2.4 mph 3.1 mph 98% 0.00 in
09:37 55.2 °F 54.7 °F 30.13 in ESE 1.8 mph 2.2 mph 98% 0.00 in
09:42 55.2 °F 54.4 °F 30.13 in West 1.5 mph 3.8 mph 97% 0.00 in
09:47 55.0 °F 53.9 °F 30.13 in SW 1.8 mph 3.8 mph 96% 0.00 in
09:52 55.2 °F 54.1 °F 30.13 in SSE 1.6 mph 3.1 mph 96% 0.00 in
09:57 55.2 °F 53.8 °F 30.13 in SSE 1.6 mph 2.2 mph 95% 0.00 in
10:02 55.4 °F 54.0 °F 30.13 in South 2.0 mph 2.2 mph 95% 0.00 in
10:07 55.4 °F 54.0 °F 30.14 in South 2.1 mph 2.2 mph 95% 0.00 in
10:12 55.9 °F 54.5 °F 30.14 in SSE 2.4 mph 3.1 mph 95% 0.00 in
10:17 56.8 °F 55.4 °F 30.13 in SE 2.4 mph 3.8 mph 95% 0.00 in
10:21 58.1 °F 56.4 °F 30.13 in ESE 2.5 mph 3.8 mph 94% 0.00 in
10:26 58.8 °F 55.3 °F 30.14 in SE 3.4 mph 6.9 mph 88% 0.00 in
10:31 58.4 °F 54.6 °F 30.13 in SSE 3.4 mph 6.9 mph 87% 0.00 in
10:36 58.4 °F 54.6 °F 30.14 in NW 2.4 mph 3.1 mph 87% 0.00 in
10:41 58.3 °F 54.4 °F 30.14 in SSW 2.0 mph 3.1 mph 87% 0.00 in
10:46 58.1 °F 53.9 °F 30.13 in SSE 2.2 mph 4.5 mph 86% 0.00 in
10:51 59.0 °F 54.8 °F 30.13 in SE 3.3 mph 5.4 mph 86% 0.00 in
10:56 60.1 °F 55.2 °F 30.13 in ESE 4.1 mph 5.4 mph 84% 0.00 in
11:01 60.8 °F 55.9 °F 30.13 in East 4.8 mph 6.9 mph 84% 0.00 in
11:06 60.8 °F 55.9 °F 30.13 in ESE 5.8 mph 6.9 mph 84% 0.00 in
11:07 60.8 °F 55.9 °F 30.13 in ESE 6.0 mph 6.9 mph 84% 0.00 in
11:12 62.4 °F 55.5 °F 30.13 in SE 4.4 mph 6.0 mph 78% 0.00 in
11:17 62.2 °F 53.8 °F 30.12 in ESE 2.7 mph 4.5 mph 74% 0.00 in
11:22 61.5 °F 53.5 °F 30.13 in SE 2.2 mph 4.5 mph 75% 0.00 in
Export, Pennsylvania, USA
Compliments of Weather Underground